EW9495 Weather Reports


Display with metric or nautical units.
time (UTC)temp
F
wind
direction
speed
MPH
gust
MPH
rain 1hr
in
rain 24hr
in
rain mn
in
humidity
%
barometer
mb
20260906224517 0 317 4.0 11.0 0.00 0.44 0.28 1005.0
20260906223016 0 336 6.0 10.0 0.00 0.44 0.28 1005.0
20260906221519 0 338 6.0 12.0 0.00 0.44 0.28 1004.9
20260906220013 0 304 6.0 11.0 0.00 0.44 0.28 1005.0
20260906214512 0 252 3.0 9.0 0.00 0.44 0.28 1004.9
20260906213011 0 275 5.0 8.0 0.00 0.44 0.28 1004.8
20260906211511 0 21 0.0 7.0 0.00 0.44 0.28 1004.7
20260906210010 0 223 3.0 7.0 0.00 0.44 0.28 1004.7
20260906204506 0 321 2.0 7.0 0.00 0.44 0.28 1004.7
20260906203104 0 228 2.0 7.0 0.00 0.44 0.28 1004.6
20260906201556 0 297 4.0 7.0 0.00 0.44 0.28 1005.0
20260906200052 0 316 5.0 11.0 0.00 0.44 0.28 1004.9
20260906194547 0 302 3.0 8.0 0.00 0.44 0.28 1004.8
20260906193046 0 313 3.0 10.0 0.00 0.44 0.28 1004.6
20260906191539 0 121 5.0 9.0 0.00 0.44 0.28 1004.7
20260906190034 0 126 4.0 13.0 0.00 0.44 0.28 1004.6
20260906184530 0 109 6.0 15.0 0.00 0.44 0.28 1004.4
20260906183025 0 83 8.0 16.0 0.00 0.44 0.28 1004.6
20260906181532 0 312 1.0 7.0 0.00 0.44 0.28 1005.2
20260906180026 0 261 3.0 6.0 0.01 0.44 0.28 1005.6
20260906174512 0 53 4.0 12.0 0.01 0.44 0.28 1005.8
20260906173007 0 67 9.0 19.0 0.01 0.44 0.28 1005.4
20260906171503 0 298 13.0 24.0 0.00 0.43 0.27 1007.4
20260906170117 0 312 1.0 5.0 0.02 0.43 0.27 1007.0
20260906164557 0 269 0.0 7.0 0.04 0.43 0.27 1007.0
20260906163056 0 246 4.0 7.0 0.04 0.43 0.27 1006.7
20260906161546 0 267 1.0 5.0 0.04 0.43 0.27 1006.4
20260906160050 0 301 2.0 10.0 0.02 0.41 0.25 1006.9
20260906154536 0 311 4.0 13.0 0.08 0.39 0.23 1006.9
20260906153037 0 278 6.0 13.0 0.22 0.39 0.23 1007.0
20260906151527 0 338 8.0 20.0 0.23 0.39 0.23 1007.3
20260906150026 0 350 11.0 19.0 0.23 0.39 0.23 1007.9
20260906144521 0 323 9.0 18.0 0.15 0.32 0.15 1008.8
20260906143014 0 292 8.0 15.0 0.00 0.17 0.00 1008.0
20260906141516 0 63 10.0 20.0 0.00 0.17 0.00 1007.0
20260906140005 0 88 15.0 28.0 0.00 0.17 0.00 1006.6
20260906134502 0 72 13.0 22.0 0.00 0.23 0.00 1006.6
20260906133117 0 96 11.0 22.0 0.00 0.23 0.00 1006.7
20260906131552 0 90 8.0 19.0 0.00 0.23 0.00 1006.5
20260906130104 0 54 11.0 22.0 0.00 0.23 0.00 1006.5
20260906124544 0 42 10.0 18.0 0.00 0.23 0.00 1006.5
20260906123040 0 54 8.0 21.0 0.00 0.23 0.00 1007.0
20260906121537 0 51 13.0 23.0 0.00 0.23 0.00 1006.8
20260906120032 0 61 14.0 22.0 0.00 0.23 0.00 1006.7
20260906114541 0 80 10.0 16.0 0.00 0.23 0.00 1007.2
20260906113024 0 45 9.0 20.0 0.00 0.23 0.00 1006.8
20260906111540 0 81 12.0 20.0 0.00 0.23 0.03 1006.5
20260906110032 0 54 12.0 19.0 0.00 0.23 0.03 1006.5
20260906104527 0 133 5.0 13.0 0.00 0.23 0.03 1006.9
20260906103022 0 332 7.0 18.0 0.00 0.23 0.03 1006.9
20260906101522 0 28 10.0 20.0 0.00 0.23 0.03 1006.7
20260906100021 0 76 11.0 22.0 0.00 0.23 0.03 1006.7
20260906094508 0 14 8.0 15.0 0.00 0.23 0.03 1006.9
20260906093005 0 63 7.0 13.0 0.00 0.23 0.03 1007.2
20260906091601 0 250 11.0 23.0 0.00 0.23 0.03 1008.5
20260906090057 0 328 8.0 19.0 0.00 0.23 0.03 1008.4
20260906084552 0 22 8.0 25.0 0.00 0.23 0.03 1007.8
20260906083051 0 61 11.0 21.0 0.00 0.23 0.03 1007.2
20260906081542 0 38 6.0 19.0 0.00 0.23 0.03 1008.1
20260906080040 0 334 7.0 18.0 0.00 0.23 0.03 1008.0
20260906074535 0 55 13.0 22.0 0.00 0.23 0.03 1007.7
20260906073031 0 313 5.0 15.0 0.00 0.23 0.03 1008.4
20260906071524 0 329 7.0 14.0 0.00 0.23 0.03 1009.0
20260906070019 0 345 8.0 16.0 0.03 0.23 0.03 1008.8
20260906064515 0 11 13.0 24.0 0.03 0.23 0.03 1009.1
20260906063014 0 5 7.0 14.0 0.03 0.23 0.03 1009.6
20260906061507 0 56 4.0 12.0 0.03 0.23 0.03 1009.5
20260906060002 0 30 6.0 19.0 0.05 0.20 0.20 1009.3
20260906054605 0 48 8.0 16.0 0.05 0.20 0.20 1009.0
20260906053059 0 59 7.0 13.0 0.05 0.20 0.20 1009.2
20260906051607 0 34 3.0 16.0 0.05 0.20 0.20 1009.2
20260906050046 0 309 4.0 11.0 0.00 0.15 0.15 1010.3
20260906044549 0 67 9.0 22.0 0.03 0.15 0.15 1008.6
20260906043035 0 84 9.0 15.0 0.08 0.15 0.15 1008.2
20260906041531 0 59 8.0 18.0 0.08 0.15 0.15 1008.6
20260906040046 0 202 0.0 19.0 0.08 0.15 0.15 1008.7
20260906034520 0 302 6.0 11.0 0.05 0.12 0.12 1010.3
20260906033034 0 271 2.0 13.0 0.00 0.07 0.07 1009.5
20260906031515 0 48 10.0 18.0 0.00 0.07 0.07 1008.1
20260906030014 0 57 7.0 15.0 0.00 0.07 0.07 1007.8
20260906024514 0 92 5.0 11.0 0.00 0.07 0.07 1007.5
20260906023014 0 309 2.0 7.0 0.00 0.07 0.07 1007.4
20260906021514 0 278 3.0 5.0 0.00 0.07 0.07 1007.5
20260906020012 0 336 1.0 4.0 0.00 0.07 0.07 1007.5
20260906014513 0 51 0.0 6.0 0.00 0.07 0.07 1007.7
20260906013012 0 67 4.0 8.0 0.00 0.07 0.07 1007.3
20260906011515 0 63 6.0 10.0 0.00 0.07 0.07 1007.5
20260906010014 0 86 6.0 10.0 0.00 0.07 0.07 1007.6
20260906004505 0 72 4.0 8.0 0.00 0.07 0.07 1007.7
20260906003001 0 54 1.0 6.0 0.00 0.07 0.07 1007.8
20260906001607 0 90 4.0 13.0 0.00 0.07 0.07 1007.7
20260906000056 0 313 7.0 15.0 0.00 0.07 0.07 1007.8
20260905234555 0 325 8.0 15.0 0.00 0.07 0.07 1008.0
20260905233101 0 309 6.0 12.0 0.00 0.07 0.07 1007.8
20260905231555 0 311 6.0 19.0 0.00 0.07 0.07 1007.7
20260905230100 0 320 9.0 18.0 0.00 0.07 0.07 1007.6